KE9LZ Weather Reports


Display with metric or nautical units.
time (UTC)temp
F
wind
direction
speed
MPH
gust
MPH
rain 1hr
in
rain 24hr
in
rain mn
in
humidity
%
barometer
mb
20260502191003 54 345 6.0 14.0 0.00 0.00 0.00 35 1021.6
20260502190004 54 309 5.0 29.0 0.00 0.00 0.00 38 1021.8
20260502185003 54 279 5.0 21.0 0.00 0.00 0.00 37 1021.7
20260502184004 53 295 3.0 13.0 0.00 0.00 0.00 36 1022.1
20260502183004 53 304 13.0 20.0 0.00 0.00 0.00 37 1022.3
20260502181004 53 276 5.0 18.0 0.00 0.00 0.00 37 1022.5
20260502164004 50 289 5.0 16.0 0.00 0.00 0.00 40 1023.5
20260502163004 51 116 6.0 10.0 0.00 0.00 0.00 41 1023.6
20260502162004 51 264 3.0 8.0 0.00 0.00 0.00 41 1023.9
20260502152004 48 248 3.0 8.0 0.00 0.00 0.00 43 1024.4
20260502151003 49 243 3.0 8.0 0.00 0.00 0.00 42 1024.6
20260502123004 36 150 1.0 6.0 0.00 0.00 0.00 76 1025.5
20260502122003 35 277 2.0 5.0 0.00 0.00 0.00 77 1025.5
20260502121004 35 14 3.0 6.0 0.00 0.00 0.00 82 1025.4
20260502115004 32 148 5.0 7.0 0.00 0.00 0.00 91 1025.4
20260502114003 30 180 3.0 6.0 0.00 0.00 0.00 95 1025.3
20260502113004 29 129 3.0 6.0 0.00 0.00 0.00 97 1025.3
20260502112003 29 107 5.0 8.0 0.00 0.01 0.00 97 1025.5
20260502111004 29 146 6.0 7.0 0.00 0.02 0.00 98 1025.0
20260502105003 28 144 2.0 5.0 0.00 0.02 0.00 98 1025.0
20260502104004 28 9 3.0 5.0 0.00 0.02 0.00 98 1025.1
20260502103003 28 61 2.0 7.0 0.00 0.02 0.00 98 1025.1
20260502102003 28 78 6.0 7.0 0.00 0.02 0.00 98 1025.1
20260502101003 28 147 2.0 7.0 0.00 0.02 0.00 98 1024.9
20260502091004 29 102 2.0 3.0 0.00 0.02 0.00 97 1024.9
20260502071004 33 193 2.0 5.0 0.00 0.05 0.00 90 1024.4
20260502070004 33 185 2.0 5.0 0.00 0.05 0.00 90 1024.3
20260502065004 33 174 2.0 5.0 0.00 0.06 0.00 90 1024.6
20260502064004 34 166 2.0 5.0 0.00 0.06 0.00 90 1024.6
20260502062004 34 179 3.0 5.0 0.00 0.06 0.00 89 1024.6
20260502061004 34 197 3.0 5.0 0.00 0.06 0.00 90 1024.6
20260502055004 33 194 2.0 3.0 0.00 0.06 0.00 90 1024.7
20260502053004 33 169 1.0 2.0 0.00 0.06 0.00 90 1024.5
20260502052004 34 169 1.0 2.0 0.00 0.06 0.00 89 1024.5
20260502051004 34 157 1.0 3.0 0.00 0.06 0.00 89 1024.5
20260502050003 33 166 2.0 3.0 0.00 0.06 0.00 89 1024.5
20260502045004 34 152 2.0 3.0 0.00 0.06 0.06 89 1024.5
20260502044004 34 166 2.0 5.0 0.00 0.06 0.06 89 1024.6
20260502043003 34 136 2.0 5.0 0.00 0.06 0.06 88 1024.2
20260502042004 34 142 2.0 6.0 0.00 0.06 0.06 87 1024.5
20260502041004 35 131 3.0 5.0 0.00 0.06 0.06 86 1024.5
20260502040004 35 137 3.0 5.0 0.00 0.06 0.06 85 1024.4
20260502035003 35 131 2.0 3.0 0.00 0.06 0.06 85 1024.5
20260502034003 35 144 1.0 2.0 0.00 0.06 0.06 86 1024.4
20260502033004 35 156 1.0 3.0 0.00 0.06 0.06 85 1024.5
20260502031003 34 105 1.0 2.0 0.00 0.09 0.06 86 1024.6
20260502030004 35 95 1.0 2.0 0.00 0.09 0.06 84 1024.6
20260502025004 35 122 2.0 2.0 0.00 0.09 0.06 82 1024.7
20260502024003 36 132 2.0 3.0 0.00 0.09 0.06 81 1024.5
20260502023004 36 116 2.0 3.0 0.00 0.09 0.06 80 1024.6
20260502022004 37 118 2.0 2.0 0.00 0.09 0.06 78 1024.7
20260502021004 37 101 2.0 3.0 0.00 0.09 0.06 76 1024.4
20260502020004 37 122 3.0 3.0 0.00 0.09 0.06 76 1024.4
20260502015004 37 93 2.0 2.0 0.00 0.09 0.06 73 1024.6
20260502014003 39 90 2.0 2.0 0.00 0.09 0.06 70 1024.3
20260502013004 40 121 2.0 5.0 0.00 0.09 0.06 65 1024.2
20260502012004 41 73 2.0 5.0 0.00 0.09 0.06 59 1024.2
20260502011004 41 23 2.0 5.0 0.00 0.09 0.06 57 1024.1
20260502010004 42 102 2.0 6.0 0.00 0.09 0.06 59 1024.2
20260502005004 42 343 2.0 6.0 0.00 0.09 0.06 57 1024.1
20260502004004 42 39 5.0 6.0 0.00 0.09 0.06 56 1024.3
20260502003004 42 79 2.0 6.0 0.00 0.10 0.06 57 1024.1
20260502002002 42 25 4.0 7.0 0.00 0.10 0.06 56 1024.3
20260502001002 42 16 3.0 7.0 0.00 0.10 0.06 55 1024.0
20260502000002 42 22 5.0 8.0 0.00 0.10 0.06 56 1024.0
20260501235002 42 73 5.0 9.0 0.00 0.10 0.06 56 1023.8
20260501234002 42 31 5.0 13.0 0.00 0.10 0.06 61 1024.2
20260501232002 42 40 3.0 10.0 0.00 0.10 0.06 58 1023.8
20260501231002 43 53 3.0 9.0 0.00 0.10 0.06 57 1024.1
20260501230002 42 344 6.0 12.0 0.00 0.10 0.06 56 1024.0
20260501225002 43 34 4.0 9.0 0.00 0.10 0.06 63 1023.8
20260501224002 43 39 5.0 8.0 0.00 0.10 0.06 62 1024.0
20260501223002 44 85 4.0 7.0 0.00 0.10 0.06 61 1023.9
20260501222002 43 65 5.0 12.0 0.00 0.10 0.06 62 1024.0
20260501221002 43 30 4.0 10.0 0.00 0.10 0.06 63 1023.7
20260501215001 43 310 7.0 13.0 0.00 0.10 0.06 56 1023.7
20260501214002 43 304 7.0 15.0 0.00 0.10 0.06 57 1023.8
20260501213001 43 325 7.0 18.0 0.00 0.10 0.06 55 1023.4
20260501212002 43 343 6.0 13.0 0.00 0.10 0.06 55 1023.6
20260501211002 43 334 5.0 17.0 0.00 0.10 0.06 57 1023.4
20260501210002 43 329 6.0 12.0 0.00 0.10 0.06 53 1023.4
20260501205002 43 14 5.0 12.0 0.00 0.10 0.06 50 1023.5
20260501202001 43 62 3.0 6.0 0.00 0.10 0.06 55 1023.5
20260501201002 43 14 3.0 9.0 0.00 0.10 0.06 54 1023.5
20260501200002 43 41 5.0 12.0 0.00 0.10 0.06 50 1023.5
20260501194002 43 29 6.0 10.0 0.00 0.10 0.06 56 1023.5
20260501193002 43 333 5.0 8.0 0.00 0.10 0.06 53 1023.5